IV3IYL-13 Weather Reports


time (UTC)temp
F
wind
direction
speed
knots
gust
knots
rain 1hr
in
rain 24hr
in
rain mn
in
humidity
%
barometer
mb
20260906080144 79 0.0 0.0 0.00 0.00 0.00 88 1022.4
20260906075129 78 0.0 0.0 0.00 0.00 0.00 90 1022.4
20260906074119 77 0.0 0.0 0.00 0.00 0.00 91 1022.3
20260906073119 77 0.0 0.0 0.00 0.00 0.00 97 1022.4
20260906072129 77 0.0 0.0 0.00 0.00 0.00 96 1022.3
20260906071119 76 0.0 0.0 0.00 0.00 0.00 95 1022.1
20260906070119 76 0.0 0.0 0.00 0.00 0.00 10 1022.1
20260906065119 76 0.0 0.0 0.00 0.00 0.00 10 1022.0
20260906064119 75 0.0 0.0 0.00 0.00 0.00 10 1021.9
20260906063119 75 0.0 0.0 0.00 0.00 0.00 10 1021.9
20260906062120 74 0.0 0.0 0.00 0.00 0.00 10 1021.8
20260906061119 73 0.0 0.0 0.00 0.00 0.00 10 1021.7
20260906060119 73 0.0 0.0 0.00 0.00 0.00 10 1021.5
20260906055119 72 0.0 0.0 0.00 0.00 0.00 10 1021.4
20260906054119 71 0.0 0.0 0.00 0.00 0.00 10 1021.2
20260906053118 70 0.0 0.0 0.00 0.00 0.00 10 1021.1
20260906052134 70 0.0 0.0 0.00 0.00 0.00 10 1021.1
20260906051118 70 0.0 0.0 0.00 0.00 0.00 10 1021.0
20260906050118 70 0.0 0.0 0.00 0.00 0.00 10 1021.0
20260906045129 70 0.0 0.0 0.00 0.00 0.00 10 1020.9
20260906044119 70 0.0 0.0 0.00 0.00 0.00 10 1020.7
20260906043119 70 0.0 0.0 0.00 0.00 0.00 10 1020.6
20260906042129 70 0.0 0.0 0.00 0.00 0.00 10 1020.6
20260906041119 70 0.0 0.0 0.00 0.00 0.00 10 1020.6
20260906040118 70 0.0 0.0 0.00 0.00 0.00 10 1020.5
20260906035119 70 0.0 0.0 0.00 0.00 0.00 10 1020.5
20260906034118 70 0.0 0.0 0.00 0.00 0.00 10 1020.3
20260906033118 69 0.0 0.0 0.00 0.00 0.00 10 1020.3
20260906032118 69 0.0 0.0 0.00 0.00 0.00 10 1020.3
20260906031118 69 0.0 0.0 0.00 0.00 0.00 10 1020.1
20260906030118 69 0.0 0.0 0.00 0.00 0.00 10 1020.0
20260906025118 69 0.0 0.0 0.00 0.00 0.00 10 1020.0
20260906024128 70 0.0 0.0 0.00 0.00 0.00 10 1020.0
20260906023118 70 0.0 0.0 0.00 0.00 0.00 10 1020.0
20260906022118 70 0.0 0.0 0.00 0.00 0.00 10 1019.9
20260906021118 70 0.0 0.0 0.00 0.00 0.00 10 1020.0
20260906020123 70 0.0 0.0 0.00 0.00 0.00 10 1019.8
20260906015118 70 0.0 0.0 0.00 0.00 0.00 10 1019.7
20260906014118 70 0.0 0.0 0.00 0.00 0.00 10 1019.7
20260906013118 70 0.0 0.0 0.00 0.00 0.00 10 1019.7
20260906012118 70 0.0 0.0 0.00 0.00 0.00 10 1019.7
20260906011118 70 0.0 0.0 0.00 0.00 0.00 10 1019.6
20260906010128 71 0.0 0.0 0.00 0.00 0.00 10 1019.4
20260906005118 71 0.0 0.0 0.00 0.00 0.00 10 1019.4
20260906004118 71 0.0 0.0 0.00 0.00 0.00 10 1019.5
20260906003117 71 0.0 0.0 0.00 0.00 0.00 10 1019.5
20260906002118 72 0.0 0.0 0.00 0.00 0.00 10 1019.6
20260906001133 71 0.0 0.0 0.00 0.00 0.00 10 1019.5
20260906000118 72 0.0 0.0 0.00 0.00 0.00 10 1019.5
20260905235117 72 0.0 0.0 0.00 0.00 0.00 10 1019.4
20260905234117 72 0.0 0.0 0.00 0.00 0.00 10 1019.3
20260905233117 72 0.0 0.0 0.00 0.00 0.00 10 1019.4
20260905232127 73 0.0 0.0 0.00 0.00 0.00 10 1019.3
20260905231118 73 0.0 0.0 0.00 0.00 0.00 10 1019.3
20260905230117 73 0.0 0.0 0.00 0.00 0.00 10 1019.3
20260905225117 73 0.0 0.0 0.00 0.00 0.00 10 1019.2
20260905224128 73 0.0 0.0 0.00 0.00 0.00 10 1019.2
20260905223117 73 0.0 0.0 0.00 0.00 0.00 10 1019.1
20260905222118 74 0.0 0.0 0.00 0.00 0.00 10 1019.1
20260905221117 74 0.0 0.0 0.00 0.00 0.00 10 1019.0
20260905220117 74 0.0 0.0 0.00 0.00 0.00 10 1018.9
20260905215117 74 0.0 0.0 0.00 0.00 0.00 10 1018.7
20260905214117 74 0.0 0.0 0.00 0.00 0.00 10 1018.7
20260905213117 74 0.0 0.0 0.00 0.00 0.00 10 1018.8
20260905212117 74 0.0 0.0 0.00 0.00 0.00 10 1018.8
20260905211117 74 0.0 0.0 0.00 0.00 0.00 10 1018.8
20260905210117 74 0.0 0.0 0.00 0.00 0.00 10 1018.7
20260905205117 74 0.0 0.0 0.00 0.00 0.00 10 1018.7
20260905204117 75 0.0 0.0 0.00 0.00 0.00 10 1018.7
20260905203127 75 0.0 0.0 0.00 0.00 0.00 10 1018.6
20260905202117 75 0.0 0.0 0.00 0.00 0.00 10 1018.5
20260905201117 76 0.0 0.0 0.00 0.00 0.00 10 1018.2
20260905200117 76 0.0 0.0 0.00 0.00 0.00 10 1018.1
20260905195117 76 0.0 0.0 0.00 0.00 0.00 10 1018.0
20260905194116 75 0.0 0.0 0.00 0.00 0.00 10 1017.9
20260905193127 75 0.0 0.0 0.00 0.00 0.00 10 1017.8
20260905192117 75 0.0 0.0 0.00 0.00 0.00 10 1017.7
20260905191117 75 0.0 0.0 0.00 0.00 0.00 10 1017.5
20260905190116 75 0.0 0.0 0.00 0.00 0.00 10 1017.4
20260905185117 76 0.0 0.0 0.00 0.00 0.00 10 1017.3
20260905184116 76 0.0 0.0 0.00 0.00 0.00 10 1017.1
20260905183117 76 0.0 0.0 0.00 0.00 0.00 10 1016.9
20260905182116 76 0.0 0.0 0.00 0.00 0.00 10 1016.7
20260905181116 77 0.0 0.0 0.00 0.00 0.00 10 1016.6
20260905180116 78 0.0 0.0 0.00 0.00 0.00 10 1016.4
20260905175116 78 0.0 0.0 0.00 0.00 0.00 10 1016.3
20260905174116 79 0.0 0.0 0.00 0.00 0.00 10 1016.1
20260905173116 79 0.0 0.0 0.00 0.00 0.00 10 1016.1
20260905172116 80 0.0 0.0 0.00 0.00 0.00 10 1016.0
20260905171116 81 0.0 0.0 0.00 0.00 0.00 10 1015.8
20260905170132 82 0.0 0.0 0.00 0.00 0.00 10 1015.8
20260905165131 83 0.0 0.0 0.00 0.00 0.00 91 1015.7
20260905164116 84 0.0 0.0 0.00 0.00 0.00 84 1015.7
20260905163116 85 0.0 0.0 0.00 0.00 0.00 66 1015.5
20260905162136 85 0.0 0.0 0.00 0.00 0.00 67 1015.4
20260905161116 84 0.0 0.0 0.00 0.00 0.00 68 1015.5
20260905160116 84 0.0 0.0 0.00 0.00 0.00 73 1015.4
20260905155116 84 0.0 0.0 0.00 0.00 0.00 81 1015.5
20260905154116 85 0.0 0.0 0.00 0.00 0.00 61 1015.4
20260905153116 86 0.0 0.0 0.00 0.00 0.00 62 1015.3
20260905152116 86 0.0 0.0 0.00 0.00 0.00 56 1015.2
20260905151116 86 0.0 0.0 0.00 0.00 0.00 55 1015.1
20260905150116 86 0.0 0.0 0.00 0.00 0.00 55 1015.2
20260905145116 86 0.0 0.0 0.00 0.00 0.00 54 1015.4
20260905144116 85 0.0 0.0 0.00 0.00 0.00 57 1015.3
20260905143115 86 0.0 0.0 0.00 0.00 0.00 54 1015.3
20260905142116 86 0.0 0.0 0.00 0.00 0.00 53 1015.3
20260905141115 86 0.0 0.0 0.00 0.00 0.00 53 1015.2
20260905140116 86 0.0 0.0 0.00 0.00 0.00 52 1015.3
20260905135131 86 0.0 0.0 0.00 0.00 0.00 53 1015.5
20260905134141 86 0.0 0.0 0.00 0.00 0.00 55 1015.5
20260905133115 85 0.0 0.0 0.00 0.00 0.00 51 1015.4
20260905132115 85 0.0 0.0 0.00 0.00 0.00 50 1015.6
20260905131116 85 0.0 0.0 0.00 0.00 0.00 50 1015.7
20260905130126 85 0.0 0.0 0.00 0.00 0.00 50 1015.7
20260905125115 85 0.0 0.0 0.00 0.00 0.00 50 1015.8
20260905124125 85 0.0 0.0 0.00 0.00 0.00 45 1015.8
20260905123125 85 0.0 0.0 0.00 0.00 0.00 47 1016.1
20260905122115 85 0.0 0.0 0.00 0.00 0.00 49 1016.1
20260905121115 84 0.0 0.0 0.00 0.00 0.00 49 1016.1
20260905120115 84 0.0 0.0 0.00 0.00 0.00 50 1016.1
20260905115115 83 0.0 0.0 0.00 0.00 0.00 53 1016.2
20260905114145 83 0.0 0.0 0.00 0.00 0.00 54 1016.2
20260905113125 83 0.0 0.0 0.00 0.00 0.00 52 1016.3
20260905112115 83 0.0 0.0 0.00 0.00 0.00 56 1016.3
20260905111115 83 0.0 0.0 0.00 0.00 0.00 64 1016.4
20260905110115 83 0.0 0.0 0.00 0.00 0.00 65 1016.5
20260905105130 83 0.0 0.0 0.00 0.00 0.00 66 1016.5
20260905104115 82 0.0 0.0 0.00 0.00 0.00 77 1016.5
20260905103115 82 0.0 0.0 0.00 0.00 0.00 77 1016.6
20260905102115 81 0.0 0.0 0.00 0.00 0.00 95 1016.6
20260905101115 80 0.0 0.0 0.00 0.00 0.00 10 1016.6
20260905100115 80 0.0 0.0 0.00 0.00 0.00 99 1016.7
20260905095115 79 0.0 0.0 0.00 0.00 0.00 10 1016.8
20260905094115 79 0.0 0.0 0.00 0.00 0.00 10 1016.7
20260905093115 79 0.0 0.0 0.00 0.00 0.00 10 1016.8
20260905092115 79 0.0 0.0 0.00 0.00 0.00 10 1016.7
20260905091115 79 0.0 0.0 0.00 0.00 0.00 10 1016.8
20260905090114 79 0.0 0.0 0.00 0.00 0.00 10 1016.6
20260905085114 78 0.0 0.0 0.00 0.00 0.00 10 1016.7
20260905084125 78 0.0 0.0 0.00 0.00 0.00 10 1016.4
20260905083115 78 0.0 0.0 0.00 0.00 0.00 10 1016.4
20260905082114 78 0.0 0.0 0.00 0.00 0.00 10 1016.4
20260905081115 78 0.0 0.0 0.00 0.00 0.00 10 1016.5